User: anonymous   Login
Location: Bismarck
(46.7731°N, 100.8200°W)
Time: 10:06:20
(UTC-05:00)
Language:

Landsat 7 - Orbit

View from above orbital plane
View from above orbital plane
View from above satellite
View from above satellite

Ground track
Ground track

The orbit data is extracted from the following two-line orbital elements,

1 25682U 99020A   16205.19876628 -.00000121  00000-0 -16852-4 0  9996
2 25682  98.2119 275.1100 0000785  47.9008 312.2286 14.57107711918689
Epoch (UTC): 23 July 2016 04:46:13
Eccentricity: 0.0000785
inclination: 98.2119°
perigee height: 702 km
apogee height: 703 km
right ascension of ascending node: 275.1100°
argument of perigee: 47.9008°
revolutions per day: 14.57107711
mean anomaly at epoch: 312.2286°
orbit number at epoch: 91868

The dashed part of the orbit path shows where the satellite is in the earth's shadow,  

DLR